TimeCST,TemperatureF,Dew PointF,Humidity,Sea Level PressureIn,VisibilityMPH,Wind Direction,Wind SpeedMPH,Gust SpeedMPH,PrecipitationIn,Events,Conditions,WindDirDegrees,DateUTC
12:20 AM,53.6,51.8,94,29.92,4.0,South,18.4,25.3,0.04,Rain,Light Rain,180,2013-11-06 06:20:00
12:54 AM,53.1,51.1,93,29.91,6.0,South,15.0,-,0.06,Rain,Light Rain,190,2013-11-06 06:54:00
1:54 AM,54.0,52.0,93,29.88,8.0,South,13.8,-,0.02,,Light Drizzle,190,2013-11-06 07:54:00
2:54 AM,54.0,52.0,93,29.86,8.0,SSW,17.3,21.9,0.02,Rain,Light Rain,200,2013-11-06 08:54:00
3:54 AM,54.0,52.0,93,29.83,10.0,SSW,13.8,25.3,0.01,Rain,Light Rain,200,2013-11-06 09:54:00
4:54 AM,55.0,53.1,93,29.83,10.0,SSW,15.0,-,0.02,Rain,Light Rain,210,2013-11-06 10:54:00
5:54 AM,55.0,53.1,93,29.81,5.0,SSW,16.1,-,0.07,Rain,Rain,200,2013-11-06 11:54:00
6:54 AM,55.9,54.0,93,29.79,8.0,South,20.7,28.8,0.10,Rain,Light Rain,190,2013-11-06 12:54:00
7:54 AM,55.9,54.0,93,29.79,8.0,SSW,16.1,21.9,0.03,Rain,Light Rain,210,2013-11-06 13:54:00
8:54 AM,51.1,48.9,92,29.82,9.0,WNW,19.6,-,0.04,Rain,Light Rain,290,2013-11-06 14:54:00
9:01 AM,48.2,46.4,93,29.83,9.0,WNW,17.3,23.0,0.00,Rain,Light Rain,290,2013-11-06 15:01:00
9:54 AM,43.0,41.0,93,29.88,7.0,NW,16.1,23.0,0.00,,Light Drizzle,310,2013-11-06 15:54:00
10:21 AM,42.8,39.2,87,29.89,5.0,NW,16.1,-,0.01,Rain,Light Rain,310,2013-11-06 16:21:00
10:54 AM,41.0,37.9,89,29.92,10.0,NW,18.4,24.2,0.03,Rain,Light Rain,320,2013-11-06 16:54:00
11:28 AM,42.8,37.4,81,29.92,10.0,NW,13.8,24.2,0.00,,Overcast,320,2013-11-06 17:28:00
11:54 AM,41.0,37.0,86,29.94,10.0,NW,17.3,25.3,0.00,,Overcast,310,2013-11-06 17:54:00
12:46 PM,41.0,35.6,81,29.95,10.0,NNW,19.6,26.5,N/A,,Overcast,330,2013-11-06 18:46:00
12:54 PM,41.0,36.0,82,29.97,10.0,NW,18.4,26.5,N/A,,Overcast,320,2013-11-06 18:54:00
1:54 PM,41.0,36.0,82,30.00,10.0,NW,16.1,25.3,N/A,,Overcast,310,2013-11-06 19:54:00
2:54 PM,42.1,35.1,76,30.04,10.0,NNW,10.4,-,N/A,,Overcast,330,2013-11-06 20:54:00
3:46 PM,44.6,35.6,71,30.04,10.0,NW,6.9,-,N/A,,Scattered Clouds,320,2013-11-06 21:46:00
3:54 PM,44.1,35.1,71,30.06,10.0,NW,9.2,-,N/A,,Partly Cloudy,320,2013-11-06 21:54:00
4:54 PM,42.1,35.1,76,30.08,10.0,West,6.9,-,N/A,,Mostly Cloudy,280,2013-11-06 22:54:00
5:54 PM,41.0,33.1,73,30.11,10.0,WNW,12.7,-,N/A,,Partly Cloudy,300,2013-11-06 23:54:00
6:54 PM,39.0,28.0,65,30.14,10.0,WNW,11.5,-,N/A,,Clear,300,2013-11-07 00:54:00
7:54 PM,37.0,25.0,62,30.15,10.0,NW,11.5,-,N/A,,Clear,310,2013-11-07 01:54:00
8:54 PM,36.0,24.1,62,30.17,10.0,WNW,6.9,-,N/A,,Clear,300,2013-11-07 02:54:00
9:54 PM,34.0,25.0,70,30.20,10.0,WNW,8.1,-,N/A,,Clear,300,2013-11-07 03:54:00
10:54 PM,33.1,25.0,72,30.22,10.0,NW,5.8,-,N/A,,Clear,310,2013-11-07 04:54:00
11:54 PM,32.0,25.0,75,30.22,10.0,WNW,6.9,-,N/A,,Clear,290,2013-11-07 05:54:00